• Em Portugal
  • Lista de países
  • Para 7 dias
  • Temperatura da água
  • Mapas de satélite
  • Mapa do tempo
  • Widgets de tempo
  • user-avatar
    Iniciar Sessão

    Previsão horária em Tirana

    Hoje, 21 Fevereiro, Quarta-feira

    Tempo Temperatura Precipitação Vento Pressão Humidade
    00:00 +5°C° 0,3 mm 6 m/s 745 mmHg 80%
    01:00 +5°C° 0,3 mm 6 m/s 745 mmHg 80%
    02:00 +5°C° 0,3 mm 6 m/s 745 mmHg 80%
    03:00 +5°C° 0,3 mm 6 m/s 745 mmHg 80%
    04:00 +6°C° 0,3 mm 5 m/s 745 mmHg 81%
    05:00 +6°C° 0,3 mm 5 m/s 745 mmHg 80%
    06:00 +6°C° 0,3 mm 5 m/s 745 mmHg 80%
    07:00 +6°C° 0,3 mm 5 m/s 745 mmHg 80%
    08:00 +7°C° 0,6 mm 4 m/s 745 mmHg 79%
    09:00 +8°C° 0,6 mm 4 m/s 745 mmHg 77%
    10:00 +10°C° 0,6 mm 4 m/s 745 mmHg 75%
    11:00 +11°C° 0,9 mm 3 m/s 745 mmHg 75%
    12:00 +11°C° 0,9 mm 3 m/s 744 mmHg 74%
    13:00 +11°C° 0,9 mm 3 m/s 744 mmHg 73%
    14:00 +11°C° 0,3 mm 3 m/s 744 mmHg 75%
    15:00 +11°C° 0,3 mm 3 m/s 744 mmHg 77%
    16:00 +10°C° 0,3 mm 3 m/s 744 mmHg 79%
    17:00 +10°C° 0,4 mm 4 m/s 744 mmHg 80%
    18:00 +8°C° 0,4 mm 4 m/s 744 mmHg 82%
    19:00 +8°C° 0,4 mm 5 m/s 744 mmHg 83%
    20:00 +8°C° 0,3 mm 5 m/s 744 mmHg 83%
    21:00 +8°C° 0,3 mm 5 m/s 744 mmHg 82%
    22:00 +8°C° 0,3 mm 5 m/s 744 mmHg 82%
    23:00 +8°C° 0,5 mm 5 m/s 745 mmHg 82%

    Amanhã, 22 Fevereiro, Quinta-feira

    Tempo Temperatura Precipitação Vento Pressão Humidade
    00:00 +7°C° 0,5 mm 5 m/s 745 mmHg 82%
    01:00 +7°C° 0,5 mm 5 m/s 745 mmHg 82%
    02:00 +7°C° 0,5 mm 5 m/s 745 mmHg 83%
    03:00 +7°C° 0,5 mm 5 m/s 745 mmHg 84%
    04:00 +7°C° 0,5 mm 5 m/s 745 mmHg 85%
    05:00 +7°C° 0,1 mm 5 m/s 745 mmHg 84%
    06:00 +7°C° 0,1 mm 4 m/s 745 mmHg 83%
    07:00 +7°C° 0,1 mm 4 m/s 746 mmHg 82%
    08:00 +8°C° 0 mm 4 m/s 746 mmHg 78%
    09:00 +11°C° 0 mm 4 m/s 746 mmHg 73%
    10:00 +13°C° 0 mm 4 m/s 746 mmHg 68%
    11:00 +13°C° 0,1 mm 4 m/s 746 mmHg 66%
    12:00 +14°C° 0,1 mm 4 m/s 746 mmHg 63%
    13:00 +14°C° 0,1 mm 4 m/s 746 mmHg 60%
    14:00 +14°C° 0,2 mm 5 m/s 746 mmHg 62%
    15:00 +14°C° 0,2 mm 5 m/s 746 mmHg 63%
    16:00 +14°C° 0,2 mm 5 m/s 746 mmHg 65%
    17:00 +13°C° 0,2 mm 5 m/s 746 mmHg 69%
    18:00 +12°C° 0,2 mm 5 m/s 747 mmHg 74%
    19:00 +9°C° 0,2 mm 6 m/s 747 mmHg 78%
    20:00 +9°C° 0,1 mm 5 m/s 747 mmHg 78%
    21:00 +9°C° 0,1 mm 5 m/s 748 mmHg 78%
    22:00 +8°C° 0,1 mm 5 m/s 748 mmHg 78%
    23:00 +8°C° 0 mm 5 m/s 748 mmHg 78%

    Depois de amanhã, 23 Fevereiro, Sexta-feira

    Tempo Temperatura Precipitação Vento Pressão Humidade
    00:00 +8°C° 0 mm 5 m/s 748 mmHg 78%
    01:00 +8°C° 0 mm 5 m/s 748 mmHg 78%
    02:00 +8°C° 0,1 mm 5 m/s 747 mmHg 78%
    03:00 +8°C° 0,1 mm 5 m/s 747 mmHg 79%
    04:00 +8°C° 0,1 mm 4 m/s 747 mmHg 79%
    05:00 +8°C° 0 mm 4 m/s 747 mmHg 79%
    06:00 +8°C° 0 mm 4 m/s 747 mmHg 79%
    07:00 +8°C° 0 mm 4 m/s 748 mmHg 80%
    08:00 +11°C° 0 mm 4 m/s 748 mmHg 75%
    09:00 +12°C° 0 mm 4 m/s 748 mmHg 70%
    10:00 +14°C° 0 mm 4 m/s 748 mmHg 65%
    11:00 +15°C° 0 mm 4 m/s 748 mmHg 61%
    12:00 +16°C° 0 mm 3 m/s 748 mmHg 58%
    13:00 +17°C° 0 mm 3 m/s 747 mmHg 55%
    14:00 +17°C° 0 mm 4 m/s 747 mmHg 57%
    15:00 +15°C° 0 mm 4 m/s 747 mmHg 59%
    16:00 +15°C° 0 mm 4 m/s 746 mmHg 61%
    17:00 +14°C° 0 mm 5 m/s 746 mmHg 65%
    18:00 +11°C° 0 mm 6 m/s 746 mmHg 68%
    19:00 +10°C° 0 mm 7 m/s 746 mmHg 71%
    20:00 +10°C° 0 mm 7 m/s 746 mmHg 71%
    21:00 +10°C° 0 mm 8 m/s 746 mmHg 71%
    22:00 +10°C° 0 mm 8 m/s 746 mmHg 70%
    23:00 +10°C° 0,1 mm 7 m/s 746 mmHg 70%

    24 Fevereiro, Sábado

    Tempo Temperatura Precipitação Vento Pressão Humidade
    00:00 +10°C° 0,1 mm 7 m/s 746 mmHg 71%
    01:00 +10°C° 0,1 mm 7 m/s 746 mmHg 71%
    02:00 +9°C° 0,6 mm 6 m/s 747 mmHg 75%
    03:00 +9°C° 0,6 mm 5 m/s 747 mmHg 79%
    04:00 +9°C° 0,6 mm 5 m/s 747 mmHg 83%
    05:00 +10°C° 0,3 mm 4 m/s 747 mmHg 83%
    06:00 +8°C° 0,3 mm 4 m/s 748 mmHg 83%
    07:00 +8°C° 0,3 mm 4 m/s 748 mmHg 83%
    08:00 +10°C° 0,6 mm 3 m/s 748 mmHg 84%
    09:00 +10°C° 0,6 mm 3 m/s 748 mmHg 84%
    10:00 +10°C° 0,6 mm 3 m/s 749 mmHg 85%
    11:00 +10°C° 0,6 mm 3 m/s 749 mmHg 84%
    12:00 +10°C° 0,6 mm 3 m/s 749 mmHg 83%
    13:00 +11°C° 0,6 mm 4 m/s 749 mmHg 82%
    14:00 +11°C° 0,3 mm 3 m/s 748 mmHg 80%
    15:00 +11°C° 0,3 mm 3 m/s 748 mmHg 79%
    16:00 +11°C° 0,3 mm 3 m/s 748 mmHg 77%
    17:00 +10°C° 0,2 mm 3 m/s 748 mmHg 80%
    18:00 +10°C° 0,2 mm 3 m/s 748 mmHg 84%
    19:00 +9°C° 0,2 mm 3 m/s 749 mmHg 87%
    20:00 +9°C° 0,4 mm 3 m/s 749 mmHg 87%
    21:00 +8°C° 0,4 mm 3 m/s 749 mmHg 87%
    22:00 +8°C° 0,4 mm 3 m/s 749 mmHg 88%
    23:00 +7°C° 0,7 mm 4 m/s 749 mmHg 88%

    25 Fevereiro, Domingo

    Tempo Temperatura Precipitação Vento Pressão Humidade
    00:00 +7°C° 0,7 mm 4 m/s 749 mmHg 88%
    01:00 +6°C° 0,7 mm 4 m/s 749 mmHg 89%
    02:00 +6°C° 0,7 mm 4 m/s 749 mmHg 89%
    03:00 +6°C° 0,7 mm 4 m/s 748 mmHg 88%
    04:00 +6°C° 0,7 mm 4 m/s 748 mmHg 88%
    05:00 +6°C° 0,4 mm 4 m/s 748 mmHg 87%
    06:00 +6°C° 0,4 mm 4 m/s 748 mmHg 85%
    07:00 +7°C° 0,4 mm 3 m/s 748 mmHg 84%
    08:00 +7°C° 0,3 mm 4 m/s 748 mmHg 77%
    09:00 +10°C° 0,3 mm 4 m/s 748 mmHg 70%
    10:00 +11°C° 0,3 mm 4 m/s 748 mmHg 63%
    11:00 +11°C° 0,4 mm 4 m/s 748 mmHg 61%
    12:00 +12°C° 0,4 mm 4 m/s 747 mmHg 60%
    13:00 +12°C° 0,4 mm 4 m/s 747 mmHg 58%
    14:00 +12°C° 0,4 mm 3 m/s 747 mmHg 61%
    15:00 +11°C° 0,4 mm 3 m/s 747 mmHg 64%
    16:00 +12°C° 0,4 mm 2 m/s 746 mmHg 67%
    17:00 +10°C° 0,2 mm 2 m/s 746 mmHg 71%
    18:00 +9°C° 0,2 mm 2 m/s 746 mmHg 74%
    19:00 +8°C° 0,2 mm 2 m/s 747 mmHg 78%
    20:00 +8°C° 0,2 mm 3 m/s 746 mmHg 78%
    21:00 +8°C° 0,2 mm 3 m/s 746 mmHg 78%
    22:00 +7°C° 0,2 mm 3 m/s 746 mmHg 78%
    23:00 +7°C° 0,5 mm 3 m/s 746 mmHg 79%

    26 Fevereiro, Segunda-feira

    Tempo Temperatura Precipitação Vento Pressão Humidade
    00:00 +7°C° 0,5 mm 3 m/s 746 mmHg 80%
    01:00 +7°C° 0,5 mm 3 m/s 745 mmHg 81%
    02:00 +5°C° 0,6 mm 4 m/s 745 mmHg 81%
    03:00 +5°C° 0,6 mm 4 m/s 745 mmHg 82%
    04:00 +3°C° 0,6 mm 5 m/s 744 mmHg 82%
    05:00 +3°C° 0,4 mm 5 m/s 744 mmHg 82%
    06:00 +3°C° 0,4 mm 5 m/s 744 mmHg 82%
    07:00 +3°C° 0,4 mm 5 m/s 744 mmHg 82%
    08:00 +3°C° 0,2 mm 5 m/s 744 mmHg 81%
    09:00 +3°C° 0,2 mm 5 m/s 745 mmHg 80%
    10:00 +3°C° 0,2 mm 5 m/s 745 mmHg 79%
    11:00 +5°C° 0,1 mm 4 m/s 745 mmHg 77%
    12:00 +6°C° 0,1 mm 4 m/s 744 mmHg 76%
    13:00 +6°C° 0,1 mm 4 m/s 744 mmHg 75%
    14:00 +5°C° 0,4 mm 5 m/s 744 mmHg 79%
    15:00 +5°C° 0,4 mm 5 m/s 744 mmHg 83%
    16:00 +3°C° 0,4 mm 6 m/s 744 mmHg 87%
    17:00 +3°C° 0,4 mm 6 m/s 744 mmHg 88%
    18:00 +2°C° 0,4 mm 6 m/s 745 mmHg 90%
    19:00 +2°C° 0,4 mm 7 m/s 745 mmHg 91%
    20:00 +1°C° 0,3 mm 6 m/s 745 mmHg 91%
    21:00 +1°C° 0,3 mm 6 m/s 745 mmHg 90%
    22:00 -1°C° 0,3 mm 6 m/s 746 mmHg 90%
    23:00 -1°C° 0,3 mm 6 m/s 746 mmHg 90%
    Mostrar mais